Regional Weather Roundup
Issued by NWS

Home | Current Version | Previous Version | Graphics & Text | Print | Product List | Glossary Off
Versions: 1 2 3 4 5 6 7 8 9 10 11 12 13 14 15 16 17 18 19 20 21 22 23 24 25 26 27 28 29 30 31 32 33 34 35 36 37 38 39 40 41 42 43 44 45 46 47 48 49 50

000
ASUS43 KMKX 270121
RWRWI

WISCONSIN REGIONAL WEATHER ROUNDUP
NATIONAL WEATHER SERVICE MILWAUKEE/SULLIVAN WI
800 PM CDT TUE AUG 26 2014

NOTE: "FAIR" INDICATES FEW OR NO CLOUDS BELOW 12,000 FEET WITH NO
SIGNIFICANT WEATHER AND/OR OBSTRUCTIONS TO VISIBILITY.

WIZ001-002-006>008-014>016-023>028-270200-
NORTHWEST WISCONSIN

CITY           SKY/WX    TMP DP  RH WIND       PRES   REMARKS
SUPERIOR ARPT  PTCLDY    60  52  73 NW7       30.13S
ASHLAND        PTCLDY    58  54  86 W3        30.14S
HAYWARD        MOCLDY    64  55  72 CALM      30.14S
SIREN          CLOUDY    63  54  70 NW5       30.15R
RICE LAKE      MOCLDY    64  55  73 CALM      30.16S
LADYSMITH      PTCLDY    63  54  73 W5        30.15F
EAU CLAIRE     MOCLDY    65  56  72 W3        30.13S
MENOMONIE      MOCLDY    67  54  62 W3        30.14S
NEW RICHMOND   MOCLDY    64  56  75 NW3       30.16R
OSCEOLA        MOCLDY    66  56  71 CALM      30.17S
$$

WIZ003>005-009-010-017-018-270200-
NORTH CENTRAL WISCONSIN

CITY           SKY/WX    TMP DP  RH WIND       PRES   REMARKS
WOODRUFF       PTCLDY    62  53  74 CALM      30.14S
RHINELANDER    CLEAR     61  53  75 N3        30.14S
EAGLE RIVER    CLEAR     59  49  68 CALM      30.13S
LAND O LAKES   PTCLDY    57  50  76 N5        30.15S
PHILLIPS       CLOUDY    59  54  82 CALM      30.13F
TOMAHAWK       CLEAR     57  54  87 CALM      30.14S
MEDFORD        CLEAR     59  55  87 CALM      30.14S
MERRILL        CLEAR     62  55  75 CALM      30.12S
$$

WIZ029-030-035-036-043>047-270200-
CENTRAL WISCONSIN

CITY           SKY/WX    TMP DP  RH WIND       PRES   REMARKS
WAUSAU         CLEAR     64  54  69 W5        30.11S
MOSINEE        CLEAR     64  54  68 W5        30.14S
MARSHFIELD     PTCLDY    62  55  77 NW7       30.13F
STEVENS POINT  CLEAR     64  53  68 NW3       30.13S
WAUPACA        CLEAR     67  56  69 NW3       30.12R
WAUTOMA        CLEAR     65  59  81 CALM      30.12R
WISC RAPIDS    CLEAR     63  58  83 CALM      30.13F
CAMP DOUGLAS   PTCLDY    63  61  94 NW5       30.12F
$$

WIZ011>013-019>022-031-037>040-048>050-270200-
NORTHEAST WISCONSIN

CITY           SKY/WX    TMP DP  RH WIND       PRES   REMARKS
ANTIGO         CLEAR     61  55  79 W3        30.13F
STURGEON BAY   CLEAR     63  57  82 CALM      30.10R
GREEN BAY      CLEAR     64  59  83 NW5       30.10R
MANITOWOC      CLEAR     68  61  78 CALM      30.09S
APPLETON       PTCLDY    66  55  68 NW8       30.11R
CLINTONVILLE   CLEAR     66  54  63 W3        30.10S
OSHKOSH        CLEAR     68  57  68 NW7       30.10R
$$

WIZ032>034-041-042-053>061-270200-
SOUTHWEST WISCONSIN

CITY           SKY/WX    TMP DP  RH WIND       PRES   REMARKS
LA CROSSE      PTCLDY    69  56  62 N3        30.12S
SPARTA         PTCLDY    63  56  80 CALM      30.14S
VIROQUA        FAIR      64  58  83 CALM      30.14S
BOSCOBEL       CLEAR     69  60  73 CALM      30.12S
PRAIRIE DU CHI CLEAR     68  60  74 CALM      30.12S
PLATTEVILLE    FAIR      71  63  76 CALM      30.12F
$$

WIZ056-057-062-063-064-067-068-270200-
SOUTH CENTRAL WISCONSIN

CITY           SKY/WX    TMP DP  RH WIND       PRES   REMARKS
BARABOO/DELLS  PTCLDY    67  57  70 CALM      30.12S
LONE ROCK      PTCLDY    71  62  73 NW3       30.11S
WATERTOWN      CLEAR     68  59  72 CALM      30.10S
MADISON        PTCLDY    68  60  75 NW5       30.10S
MIDDLETON      FAIR      67  64  90 CALM      30.11S
MONROE         CLEAR     72  63  73 NW5       30.11R
JANESVILLE     CLEAR     73  63  68 CALM      30.10
$$

WIZ051-052-058>065-066-070>072-270200-
SOUTHEAST WISCONSIN

CITY           SKY/WX    TMP DP  RH WIND       PRES   REMARKS
MILWAUKEE      PTCLDY    73  58  59 NW6       30.09R
WAUKESHA       CLEAR     70  61  73 CALM      30.11
MILWAUKEE/TIMM CLEAR     72  57  60 NW6       30.09S
RACINE         CLEAR     69  63  81 CALM      30.10R
BURLINGTON     CLEAR     64  63  94 CALM      30.10R
KENOSHA        CLEAR     70  64  81 NE3       30.09R
FOND DU LAC    CLEAR     67  61  81 CALM      30.10S
SHEBOYGAN      CLEAR     64  59  83 NW3       30.09S
WEST BEND      CLEAR     66  55  68 NW5       30.10R
JUNEAU         CLEAR     67  58  72 W3        30.11S
$$

LSZ147-162-270200-
LAKE SUPERIOR

STATION/POSITION TIME  TEMP    WIND        PRES    WAVE
                       AIR SEA DIR/SP/G            HT/PER
                 (UTC) (F)     (DEG/KT/KT) (MB)    (FT/S)
W MID LAKE BUOY  0050   57 54  260/  4/  6 1019.9R   2/ 5
DEVILS ISLAND    0100   63     300/  7/  8 1020.2R
PORT WING        0000   65     260/  5/  6 1020.0S
SAXON HARBOR     0000   69      CALM  /  2 1020.3R
$$

LMZ867-665-643>646-270200-
LAKE MICHIGAN

STATION/POSITION TIME  TEMP    WIND        PRES    WAVE
                       AIR SEA DIR/SP/G            HT/PER
                 (UTC) (F)     (DEG/KT/KT) (MB)    (FT/S)
N MID LAKE BUOY  0050   66 66  240/  4/  6 1018.6R   0
NORTHPORT PIER   0000   67     170/  3/  6 1018.3S
KEWAUNEE LAKESHO 0000   73     280/  3/  4 1017.5F
SHEBOYGAN LAKESH 0100   71 65  310/  6/  7 1018.9R
ATWATER BUOY     0100   70     130/  2/  2 1019.9R
MILWAUKEE LAKESH 0100   73     290/  3/  5   N/A
S MID LAKE BUOY  0050   69 69   10/  4/  4 1018.5R   1
KENOSHA   LAKESH 0100   71        CALM     1017.9S
$$

TC  - TEMPERATURE IN CELSIUS
VSB - VISIBILITY IN STATUTE MILES
WCI - WIND CHILL INDEX
HX  - HEAT INDEX




USA.gov is the U.S. government's official web portal to all federal, state and local government web resources and services.